Regional Weather Roundup
Issued by NWS Cleveland, OH

Home | Current Version | Previous Version | Graphics & Text | Print | Product List | Glossary On
Versions: 1 2 3 4 5 6 7 8 9 10 11 12 13 14 15 16 17 18 19 20 21 22 23 24 25 26 27 28 29 30 31 32 33 34 35 36 37 38 39 40 41 42 43 44 45 46 47 48 49 50
000
ASUS41 KCLE 070402
RWRCLE
OHIO REGIONAL WEATHER ROUNDUP
NATIONAL WEATHER SERVICE CLEVELAND, OH
1100 PM EST FRI MAR 06 2015

NOTE: "FAIR" INDICATES FEW OR NO CLOUDS BELOW 12,000 FEET WITH NO
SIGNIFICANT WEATHER AND/OR OBSTRUCTIONS TO VISIBILITY.

OHZ001>008-015>018-024>027-034-035-043-044-070500-
   NORTHWEST OHIO

CITY           SKY/WX    TMP DP  RH WIND       PRES   REMARKS
DEFIANCE       CLEAR     20  10  65 SW9       30.24F WCI   9
FINDLAY        CLEAR     21  11  65 S15       30.24F WCI   8
TOLEDO EXPRESS CLEAR     21  10  62 SW13G22   30.22F WCI   9
TOLEDO EXEC    CLEAR     20  10  65 SW13      30.24F WCI   7
LIMA           CLEAR     24  11  57 S16       30.25F WCI  11
$$

OHZ009>014-019>023-028>033-038-089-070500-
   NORTHEAST OHIO

CITY           SKY/WX    TMP DP  RH WIND       PRES   REMARKS
CLE-HOPKINS    MOCLDY    20   6  55 S15       30.29S WCI   6
CLE-LAKEFRONT  MOCLDY    22   7  52 S15G25    30.26R WCI   9
CUY CO. ARPT   MOCLDY    23   9  54 S14       30.26S WCI  11
LORAIN-ELYRIA  PTCLDY    19   7  59 SW12      30.26F WCI   7
ASHTABULA      CLOUDY    19   3  49 SW12      30.26S WCI   7
AKRON-CANTON   PTCLDY    17   6  62 SW14      30.27F WCI   3
WOOSTER        PTCLDY    17   7  64 SW13      30.27F WCI   4
MANSFIELD      CLEAR     18   9  68 S18       30.25F WCI   2
YOUNGSTOWN     CLEAR     17   7  64 S9        30.26F WCI   6
$$

OHZ042-051>053-060>062-070>072-077>081-070500-
  SOUTHWEST OHIO

CITY           SKY/WX    TMP DP  RH WIND       PRES   REMARKS
CINC-COVINGTON CLEAR     22  13  68 S10       30.36S WCI  11
CINC-LUNKEN    CLEAR     21  13  71 SW10      30.40F WCI  10
HAMILTON       CLEAR     24  13  62 S6        30.38S WCI  17
DAYTON         CLEAR     24  13  62 SW16      30.31S WCI  11
WRIGHT-PAT AFB CLEAR     22  14  71 S9        30.32F WCI  12
DAYTON GENERAL CLEAR     22  14  71 S12       30.33S WCI  10
WILMINGTON     CLEAR     17   9  70 S12       30.33F WCI   4
$$

OHZ036-037-039>041-045>050-054>059-063>069-073>076-082>088-070500-
  CENTRAL AND SOUTHEAST OHIO

CITY           SKY/WX    TMP DP  RH WIND       PRES   REMARKS
COLUMBUS       CLEAR     19  10  68 S9        30.35F WCI   8
OSU AIRPORT    CLEAR     19  11  70 S13       30.32F WCI   6
BOLTON FIELD   CLEAR    N/A N/A N/A S9        30.34F
RICKENBACK AFB CLEAR     17   9  69 S8        30.36S WCI   7
NEWARK         CLEAR     17   8  67 S3        30.34F
MARION         CLEAR     19  10  68 S18       30.28F WCI   4
LANCASTER      CLEAR     19   8  62 S8        30.36F WCI   9
ZANESVILLE     CLEAR     16  11  80 S7        30.35F WCI   6
NEW PHILLY     CLEAR     20  12  71 S7        30.34F WCI  11
$$


USA.gov is the U.S. government's official web portal to all federal, state and local government web resources and services.